Regional Weather Roundup
Issued by NWS

Home | Current Version | Previous Version | Graphics & Text | Print | Product List | Glossary On
Versions: 1 2 3 4 5 6 7 8 9 10 11 12 13 14 15 16 17 18 19 20 21 22 23 24 25 26 27 28 29 30 31 32 33 34 35 36 37 38 39 40 41 42 43 44 45 46 47 48 49 50
000
ASUS45 KABQ 310201
RWRNM
NEW MEXICO REGIONAL WEATHER ROUNDUP
NATIONAL WEATHER SERVICE ALBUQUERQUE NM
800 PM MDT SAT JUL 30 2016

NOTE: "FAIR" MEANS FEW OR NO CLOUDS BELOW 12,000 FEET AGL WITH NO
       SIGNIFICANT WEATHER OR OBSTRUCTIONS TO VISION.

      THIS PRODUCT IS RELEASED AS TWO VERSIONS.  ONE VERSION NEAR
      THE TOP OF THE HOUR CONTAINING PRELIMINARY DATA FROM ALBUQUERQUE
      AND OTHER STATIONS.  A FINAL VERSION WITH ADDITIONAL DATA IS
      ISSUED ABOUT 10 MINUTES AFTER THE HOUR.

NMZ501-503-504-510>518-310300-
NORTHWEST PLATEAU/NORTHCENTRAL MOUNTAINS

CITY           SKY/WX    TMP DP  RH WIND       PRES   REMARKS
FARMINGTON     FAIR      85  41  21 E22G35    30.02R
LOS ALAMOS     LGT RAIN  70  42  36 CALM      30.27R
SANTA FE       MOCLDY    78  41  26 N24G38    30.15R
TAOS           FAIR      63  43  48 SE8       30.25F
ANGEL FIRE     MOCLDY    60  47  62 N3        30.35F

$$
NMZ402-403-502-505>509-310300-
WESTCENTRAL MOUNTAINS/SOUTHWEST MOUNTAINS

CITY           SKY/WX    TMP DP  RH WIND       PRES   REMARKS
GALLUP         FAIR      76  47  35 S24G33    30.13R
GRANTS         FAIR      78  42  27 SW18G25   30.14F
SILVER CITY    FAIR      77  53  42 N7        30.09R

$$
NMZ407-409-411-412-310300-
SOUTHERN DESERTS

CITY           SKY/WX    TMP DP  RH WIND       PRES   REMARKS
LORDSBURG      FAIR      88  52  29 W5        29.98R
DEMING         FAIR      89  52  28 NW8       29.97R
LAS CRUCES     FAIR      90  47  22 S5        29.99R
HOLLOMAN AFB   FAIR      91  48  22 SE6       29.93S
ALAMOGORDO     FAIR      86  48  26 SE6       29.96S
T OR C         FAIR      89  47  23 SW5       29.99S

$$
NMZ519>523-310300-
CENTRAL VALLEYS/CENTRAL HIGHLANDS

CITY           SKY/WX    TMP DP  RH WIND       PRES   REMARKS
ALBUQUERQUE    MOCLDY    84  50  30 S29G35    30.03S
DOUBLE EAGLE   TSTM      73  57  56 SW36G46   30.06S
MORIARTY ARPT  TSTM      62  54  74 E26G37    30.19F
CLINES CORNERS LGT RAIN  55  49  80 W24G35    30.30R
BELEN          FAIR      77  46  33 SE23G31   30.05R
SOCORRO        FAIR      84  47  27 S3        30.02R

$$
NMZ524>526-539-540-310300-
SOUTHCENTRAL MOUNTAINS

CITY           SKY/WX    TMP DP  RH WIND       PRES   REMARKS
RUIDOSO          N/A     75  46  35 SE7       30.22R

$$
NMZ527>531-310300-
NORTHEAST HIGHLANDS/NORTHEAST PLAINS

CITY           SKY/WX    TMP DP  RH WIND       PRES   REMARKS
LAS VEGAS      FAIR      66  49  54 N26G36    30.21S
RATON          LGT RAIN  60  54  80 NW14      30.22F
CLAYTON        MOCLDY    83  55  38 NW16G22   30.06R

$$
NMZ532>537-310300-
EASTCENTRAL PLAINS

CITY           SKY/WX    TMP DP  RH WIND       PRES   REMARKS
TUCUMCARI      FAIR      88  51  28 S13       29.95R
CANNON AFB     FAIR      83  54  36 S12       30.02R
CLOVIS AIRPORT FAIR      82  54  36 S9        30.02R

$$
NMZ028-029-538-310300-
SOUTHEAST PLAINS

CITY           SKY/WX    TMP DP  RH WIND       PRES   REMARKS
ROSWELL        FAIR      90  50  25 S10       29.95R
ARTESIA        FAIR      90  54  29 S9        29.95R
CARLSBAD       FAIR      91  54  28 SE10      29.91R
HOBBS          FAIR      86  50  28 SE10      30.00R


$$



USA.gov is the U.S. government's official web portal to all federal, state and local government web resources and services.